Tracking 32139 objects as of 16-Nov-2025
HD Live streaming from Space Station
objects crossing your sky now

STARLINK-34932

Track STARLINK-34932 now!
10-day predictions
STARLINK-34932 is classified as:


NORAD ID: 65179
Int'l Code: 2025-175F
Perigee: 554.7 km
Apogee: 558.4 km
Inclination: 97.6 °
Period: 95.6 minutes
Semi major axis: 6927 km
RCS: Unknown
Launch date: August 14, 2025
Source: United States (US)
Launch site: AIR FORCE WESTERN TEST RANGE (AFWTR)
Your satellite tracking list
Your tracking list is empty




NASA's NSSDC Master Catalog

Two Line Element Set (TLE):
1 65179U 25175F   25319.81741631  .00016207  00000-0  11239-2 0  9993
2 65179  97.6017 190.3805 0002619  83.3048 276.8477 15.05680928 15506
Source of the keplerian elements: AFSPC